TimePST,TemperatureF,Dew PointF,Humidity,Sea Level PressureIn,VisibilityMPH,Wind Direction,Wind SpeedMPH,Gust SpeedMPH,PrecipitationIn,Events,Conditions,WindDirDegrees,DateUTC
12:53 AM,34.0,28.9,82,30.39,10.0,Calm,Calm,-,N/A,,Clear,0,2013-03-02 08:53:00
1:53 AM,30.0,26.1,85,30.37,10.0,North,3.5,-,N/A,,Clear,10,2013-03-02 09:53:00
2:53 AM,33.1,28.9,85,30.34,10.0,Calm,Calm,-,N/A,,Clear,0,2013-03-02 10:53:00
3:53 AM,30.9,30.0,96,30.33,10.0,Calm,Calm,-,N/A,,Clear,0,2013-03-02 11:53:00
4:53 AM,33.1,30.9,92,30.34,5.0,Calm,Calm,-,N/A,,Clear,0,2013-03-02 12:53:00
5:39 AM,30.2,28.4,93,30.28,1.8,Calm,Calm,-,N/A,,Clear,0,2013-03-02 13:39:00
5:47 AM,28.4,26.6,93,30.29,1.0,WSW,4.6,-,N/A,,Mist,250,2013-03-02 13:47:00
5:53 AM,28.0,26.1,92,30.34,0.8,West,4.6,-,N/A,,Mist,260,2013-03-02 13:53:00
5:56 AM,28.4,26.6,93,30.28,1.2,SW,3.5,-,N/A,,Scattered Clouds,230,2013-03-02 13:56:00
5:59 AM,28.4,26.6,93,30.28,5.0,Calm,Calm,-,N/A,,Scattered Clouds,0,2013-03-02 13:59:00
6:53 AM,30.0,28.0,92,30.34,9.0,North,3.5,-,N/A,,Clear,350,2013-03-02 14:53:00
7:04 AM,30.2,28.4,93,30.27,10.0,North,4.6,-,N/A,,Partly Cloudy,350,2013-03-02 15:04:00
7:53 AM,33.1,30.9,92,30.35,10.0,Calm,Calm,-,N/A,,Clear,0,2013-03-02 15:53:00
8:53 AM,37.9,34.0,86,30.34,10.0,Calm,Calm,-,N/A,,Clear,0,2013-03-02 16:53:00
9:53 AM,41.0,36.0,82,30.32,10.0,Calm,Calm,-,N/A,,Clear,0,2013-03-02 17:53:00
10:53 AM,48.0,36.0,63,30.30,10.0,Calm,Calm,-,N/A,,Clear,0,2013-03-02 18:53:00
11:53 AM,51.1,36.0,56,30.28,10.0,Variable,3.5,-,N/A,,Clear,0,2013-03-02 19:53:00
12:53 PM,54.0,37.0,53,30.25,10.0,Calm,Calm,-,N/A,,Clear,0,2013-03-02 20:53:00
1:53 PM,55.9,37.0,49,30.23,10.0,Calm,Calm,-,N/A,,Clear,0,2013-03-02 21:53:00
2:53 PM,55.9,37.0,49,30.20,10.0,Calm,Calm,-,0.00,,Mostly Cloudy,0,2013-03-02 22:53:00
3:53 PM,57.0,37.0,47,30.19,10.0,Calm,Calm,-,N/A,,Mostly Cloudy,0,2013-03-02 23:53:00
4:53 PM,57.0,37.9,49,30.18,10.0,South,3.5,-,N/A,,Overcast,190,2013-03-03 00:53:00
5:53 PM,53.1,37.9,57,30.19,10.0,Calm,Calm,-,N/A,,Overcast,0,2013-03-03 01:53:00
6:53 PM,51.1,36.0,56,30.19,10.0,NE,8.1,-,N/A,,Mostly Cloudy,50,2013-03-03 02:53:00
7:53 PM,50.0,35.1,57,30.20,10.0,NNE,6.9,-,N/A,,Overcast,30,2013-03-03 03:53:00
8:53 PM,48.9,34.0,56,30.19,10.0,North,10.4,-,N/A,,Overcast,360,2013-03-03 04:53:00
9:53 PM,48.0,35.1,61,30.19,10.0,North,8.1,-,N/A,,Overcast,10,2013-03-03 05:53:00
10:53 PM,46.9,37.9,71,30.19,10.0,North,10.4,-,0.00,Rain,Light Rain,10,2013-03-03 06:53:00
11:53 PM,45.0,39.9,82,30.19,10.0,North,8.1,-,0.01,Rain,Light Rain,350,2013-03-03 07:53:00